This is the latest recevied weather packets stored in our database for station/object W9KHP-1. If no packets are shown the sender has not sent any weather packets the latest 10 day(s).
| Time | Temp. | Humidity | Pressure | Rain* | Wind** | Luminosity | Snow |
|---|---|---|---|---|---|---|---|
| 1777817140 | 12.22° C | 66% | 1023.2 hPa | 0 mm | - | 119 W/m² | - |
| 1777816838 | 11.67° C | 68% | 1023 hPa | 0 mm | - | 91 W/m² | - |
| 1777816535 | 11.11° C | 69% | 1023.3 hPa | 0 mm | - | 240 W/m² | - |
| 1777816232 | 11.67° C | 69% | 1023.1 hPa | 0 mm | - | 88 W/m² | - |
| 1777815929 | 11.11° C | 69% | 1023.3 hPa | 0 mm | - | 219 W/m² | - |
| 1777815627 | 11.11° C | 69% | 1023.2 hPa | 0 mm | - | 307 W/m² | - |
| 1777815324 | 10.56° C | 70% | 1023.2 hPa | 0 mm | - | 206 W/m² | - |
| 1777815021 | 10.56° C | 70% | 1023.3 hPa | 0 mm | - | 157 W/m² | - |
| 1777814717 | 10.56° C | 70% | 1023.4 hPa | 0 mm | - | 268 W/m² | - |
| 1777814414 | 10° C | 75% | 1023.3 hPa | 0 mm | - | 61 W/m² | - |
| 1777814111 | 9.44° C | 76% | 1023.3 hPa | 0 mm | - | 212 W/m² | - |
| 1777813808 | 9.44° C | 76% | 1023.3 hPa | 0 mm | - | 56 W/m² | - |
| 1777813505 | 8.89° C | 78% | 1023.2 hPa | 0 mm | - | 55 W/m² | - |
| 1777813203 | 8.89° C | 77% | 1023.1 hPa | 0 mm | - | 58 W/m² | - |
| 1777812900 | 8.89° C | 78% | 1023 hPa | 0 mm | - | 93 W/m² | - |
| 1777812596 | 8.89° C | 79% | 1023 hPa | 0 mm | - | 89 W/m² | - |
| 1777812294 | 8.33° C | 79% | 1022.9 hPa | 0 mm | - | 141 W/m² | - |
| 1777811992 | 7.78° C | 80% | 1023 hPa | 0 mm | - | 122 W/m² | - |
| 1777811691 | 7.22° C | 83% | 1023 hPa | 0 mm | - | 43 W/m² | - |
| 1777811386 | 6.67° C | 86% | 1022.9 hPa | 0 mm | - | 37 W/m² | - |
| 1777811083 | 6.67° C | 88% | 1023 hPa | 0 mm | - | 33 W/m² | - |
| 1777810780 | 6.11° C | 90% | 1023 hPa | 0 mm | - | 32 W/m² | - |
| 1777810477 | 6.11° C | 92% | 1022.9 hPa | 0 mm | - | 28 W/m² | - |
| 1777810173 | 5.56° C | 92% | 1022.9 hPa | 0 mm | - | 27 W/m² | - |
| 1777809870 | 5.56° C | 93% | 1023.1 hPa | 0 mm | - | 26 W/m² | - |
* Rain latest hour (hover to see other rain measurements)
** Current wind speed in m/s (hover to see current wind gust speed)